Time,TemperatureF,DewpointF,PressureIn,WindDirection,WindDirectionDegrees,WindSpeedMPH,WindSpeedGustMPH,Humidity,HourlyPrecipIn,Conditions,Clouds,dailyrainin,SoftwareType,DateUTC
2013-01-21 00:08:00,41.9,41.6,29.91,NNE,22,0.0,-999.0,99,-99.99,,,0.00,Acu-Link.com,2013-01-21 05:08:00,
2013-01-21 00:24:00,41.2,40.9,29.91,NNE,22,0.0,-999.0,99,-99.99,,,0.00,Acu-Link.com,2013-01-21 05:24:00,
2013-01-21 00:39:00,41.5,41.2,29.91,NNE,22,0.0,-999.0,99,-99.99,,,0.00,Acu-Link.com,2013-01-21 05:39:00,
2013-01-21 00:54:00,40.3,40.0,29.90,NNE,22,0.0,-999.0,99,-99.99,,,0.00,Acu-Link.com,2013-01-21 05:54:00,
2013-01-21 01:09:00,40.6,40.3,29.90,NNE,22,0.0,-999.0,99,-99.99,,,0.00,Acu-Link.com,2013-01-21 06:09:00,
2013-01-21 01:25:00,40.3,40.0,29.90,NNE,22,0.0,-999.0,99,-99.99,,,0.00,Acu-Link.com,2013-01-21 06:25:00,
2013-01-21 01:40:00,39.9,39.6,29.89,NNE,22,0.0,-999.0,99,-99.99,,,0.00,Acu-Link.com,2013-01-21 06:40:00,
2013-01-21 01:55:00,40.1,39.8,29.89,NNE,22,0.0,-999.0,99,-99.99,,,0.00,Acu-Link.com,2013-01-21 06:55:00,
2013-01-21 02:11:00,41.9,41.6,29.89,NNE,22,0.0,-999.0,99,-99.99,,,0.00,Acu-Link.com,2013-01-21 07:11:00,
2013-01-21 02:26:00,41.5,41.2,29.89,NNE,22,0.0,-999.0,99,-99.99,,,0.00,Acu-Link.com,2013-01-21 07:26:00,
2013-01-21 02:57:00,41.7,41.2,29.88,NNE,22,0.0,-999.0,98,-99.99,,,0.00,Acu-Link.com,2013-01-21 07:57:00,
2013-01-21 03:12:00,42.1,40.5,29.89,NNE,22,0.0,-999.0,94,-99.99,,,0.00,Acu-Link.com,2013-01-21 08:12:00,
2013-01-21 03:27:00,40.8,40.0,29.88,ESE,112,0.0,-999.0,97,-99.99,,,0.00,Acu-Link.com,2013-01-21 08:27:00,
2013-01-21 03:42:00,41.2,40.7,29.88,ESE,112,0.0,-999.0,98,-99.99,,,0.00,Acu-Link.com,2013-01-21 08:42:00,
2013-01-21 03:58:00,41.7,41.2,29.88,ESE,112,0.0,-999.0,98,-99.99,,,0.00,Acu-Link.com,2013-01-21 08:58:00,
2013-01-21 04:47:00,41.7,41.4,29.87,ESE,112,0.0,-999.0,99,-99.99,,,0.00,Acu-Link.com,2013-01-21 09:47:00,
2013-01-21 05:02:00,41.5,41.0,29.87,ESE,112,0.0,-999.0,98,-99.99,,,0.00,Acu-Link.com,2013-01-21 10:02:00,
2013-01-21 05:17:00,40.5,39.7,29.87,ESE,112,0.0,-999.0,97,-99.99,,,0.00,Acu-Link.com,2013-01-21 10:17:00,
2013-01-21 05:32:00,40.1,39.8,29.87,ESE,112,0.0,-999.0,99,-99.99,,,0.00,Acu-Link.com,2013-01-21 10:32:00,
2013-01-21 05:48:00,40.8,40.5,29.88,ESE,112,0.0,-999.0,99,-99.99,,,0.00,Acu-Link.com,2013-01-21 10:48:00,
2013-01-21 06:03:00,40.5,40.2,29.88,ESE,112,0.0,-999.0,99,-99.99,,,0.00,Acu-Link.com,2013-01-21 11:03:00,
2013-01-21 06:18:00,39.6,39.3,29.88,ESE,112,0.0,-999.0,99,-99.99,,,0.00,Acu-Link.com,2013-01-21 11:18:00,
2013-01-21 06:34:00,39.6,39.3,29.88,ESE,112,0.0,-999.0,99,-99.99,,,0.00,Acu-Link.com,2013-01-21 11:34:00,
2013-01-21 06:49:00,39.6,39.3,29.88,ESE,112,0.0,-999.0,99,-99.99,,,0.00,Acu-Link.com,2013-01-21 11:49:00,
2013-01-21 07:05:00,39.4,39.1,29.89,ESE,112,0.0,-999.0,99,-99.99,,,0.00,Acu-Link.com,2013-01-21 12:05:00,
2013-01-21 07:20:00,38.8,38.5,29.89,ESE,112,0.0,-999.0,99,-99.99,,,0.00,Acu-Link.com,2013-01-21 12:20:00,
2013-01-21 07:36:00,39.0,38.7,29.89,ESE,112,0.0,-999.0,99,-99.99,,,0.00,Acu-Link.com,2013-01-21 12:36:00,
2013-01-21 07:51:00,40.1,39.8,29.89,ESE,112,0.0,-999.0,99,-99.99,,,0.00,Acu-Link.com,2013-01-21 12:51:00,
2013-01-21 08:06:00,41.4,41.1,29.90,ESE,112,0.0,-999.0,99,-99.99,,,0.00,Acu-Link.com,2013-01-21 13:06:00,
2013-01-21 08:22:00,42.3,42.0,29.90,SE,135,0.0,-999.0,99,-99.99,,,0.00,Acu-Link.com,2013-01-21 13:22:00,
2013-01-21 08:37:00,44.2,43.1,29.91,SE,135,1.1,-999.0,96,-99.99,,,0.00,Acu-Link.com,2013-01-21 13:37:00,
2013-01-21 08:52:00,46.8,43.1,29.91,SW,225,1.7,-999.0,87,-99.99,,,0.00,Acu-Link.com,2013-01-21 13:52:00,
2013-01-21 09:08:00,48.4,43.2,29.92,SSW,202,2.7,-999.0,82,-99.99,,,0.00,Acu-Link.com,2013-01-21 14:08:00,
2013-01-21 09:23:00,50.2,44.3,29.92,SW,225,2.2,-999.0,80,-99.99,,,0.00,Acu-Link.com,2013-01-21 14:23:00,
2013-01-21 09:38:00,52.0,45.4,29.93,West,270,2.2,-999.0,78,-99.99,,,0.00,Acu-Link.com,2013-01-21 14:38:00,
2013-01-21 09:54:00,53.4,45.3,29.93,SW,225,3.7,-999.0,74,-99.99,,,0.00,Acu-Link.com,2013-01-21 14:54:00,
2013-01-21 10:09:00,54.9,45.7,29.93,WNW,292,3.2,-999.0,71,-99.99,,,0.00,Acu-Link.com,2013-01-21 15:09:00,
2013-01-21 10:24:00,56.7,46.3,29.93,West,270,5.3,-999.0,68,-99.99,,,0.00,Acu-Link.com,2013-01-21 15:24:00,
2013-01-21 10:39:00,58.1,46.8,29.92,SSW,202,3.7,-999.0,66,-99.99,,,0.00,Acu-Link.com,2013-01-21 15:39:00,
2013-01-21 10:55:00,59.7,45.8,29.92,West,270,8.9,-999.0,60,-99.99,,,0.00,Acu-Link.com,2013-01-21 15:55:00,
2013-01-21 11:10:00,60.1,42.9,29.92,West,270,4.7,-999.0,53,-99.99,,,0.00,Acu-Link.com,2013-01-21 16:10:00,
2013-01-21 11:25:00,60.6,41.3,29.92,SSW,202,4.2,-999.0,49,-99.99,,,0.00,Acu-Link.com,2013-01-21 16:25:00,
2013-01-21 11:40:00,61.5,41.1,29.91,West,270,6.8,-999.0,47,-99.99,,,0.00,Acu-Link.com,2013-01-21 16:40:00,
2013-01-21 11:56:00,62.8,39.4,29.90,WSW,247,7.3,-999.0,42,-99.99,,,0.00,Acu-Link.com,2013-01-21 16:56:00,
2013-01-21 12:11:00,62.6,39.2,29.89,SW,225,4.2,-999.0,42,-99.99,,,0.00,Acu-Link.com,2013-01-21 17:11:00,
2013-01-21 12:26:00,63.7,40.2,29.87,SSW,202,6.3,-999.0,42,-99.99,,,0.00,Acu-Link.com,2013-01-21 17:26:00,
2013-01-21 12:41:00,64.2,40.0,29.86,WNW,292,6.3,-999.0,41,-99.99,,,0.00,Acu-Link.com,2013-01-21 17:41:00,
2013-01-21 12:57:00,64.8,38.6,29.85,West,270,7.8,-999.0,38,-99.99,,,0.00,Acu-Link.com,2013-01-21 17:57:00,
2013-01-21 13:12:00,64.0,39.8,29.84,West,270,5.8,-999.0,41,-99.99,,,0.00,Acu-Link.com,2013-01-21 18:12:00,
2013-01-21 13:27:00,64.4,39.6,29.83,West,270,9.9,-999.0,40,-99.99,,,0.00,Acu-Link.com,2013-01-21 18:27:00,
2013-01-21 13:42:00,63.0,39.5,29.83,SW,225,5.8,-999.0,42,-99.99,,,0.00,Acu-Link.com,2013-01-21 18:42:00,
2013-01-21 13:57:00,62.4,38.4,29.82,WSW,247,8.3,-999.0,41,-99.99,,,0.00,Acu-Link.com,2013-01-21 18:57:00,
2013-01-21 14:13:00,62.8,39.4,29.82,WSW,247,5.3,-999.0,42,-99.99,,,0.00,Acu-Link.com,2013-01-21 19:13:00,
2013-01-21 14:28:00,63.5,40.0,29.81,West,270,5.3,-999.0,42,-99.99,,,0.00,Acu-Link.com,2013-01-21 19:28:00,
2013-01-21 14:43:00,63.3,39.2,29.80,West,270,4.7,-999.0,41,-99.99,,,0.00,Acu-Link.com,2013-01-21 19:43:00,
2013-01-21 14:58:00,63.5,38.7,29.80,West,270,4.2,-999.0,40,-99.99,,,0.00,Acu-Link.com,2013-01-21 19:58:00,
2013-01-21 15:14:00,63.9,40.4,29.80,WSW,247,6.3,-999.0,42,-99.99,,,0.00,Acu-Link.com,2013-01-21 20:14:00,
2013-01-21 15:29:00,64.0,39.2,29.79,SW,225,4.7,-999.0,40,-99.99,,,0.00,Acu-Link.com,2013-01-21 20:29:00,
2013-01-21 15:44:00,63.9,39.7,29.79,SW,225,7.3,-999.0,41,-99.99,,,0.00,Acu-Link.com,2013-01-21 20:44:00,
2013-01-21 16:00:00,63.3,39.8,29.79,WSW,247,4.2,-999.0,42,-99.99,,,0.00,Acu-Link.com,2013-01-21 21:00:00,
2013-01-21 16:15:00,63.3,39.2,29.79,SW,225,5.8,-999.0,41,-99.99,,,0.00,Acu-Link.com,2013-01-21 21:15:00,
2013-01-21 16:30:00,62.8,40.0,29.79,West,270,6.3,-999.0,43,-99.99,,,0.00,Acu-Link.com,2013-01-21 21:30:00,
2013-01-21 16:46:00,62.4,40.2,29.80,West,270,2.7,-999.0,44,-99.99,,,0.00,Acu-Link.com,2013-01-21 21:46:00,
2013-01-21 17:01:00,61.5,41.1,29.79,West,270,2.2,-999.0,47,-99.99,,,0.00,Acu-Link.com,2013-01-21 22:01:00,
2013-01-21 17:16:00,60.8,41.5,29.79,West,270,3.7,-999.0,49,-99.99,,,0.00,Acu-Link.com,2013-01-21 22:16:00,
2013-01-21 17:31:00,59.9,40.7,29.80,WSW,247,2.2,-999.0,49,-99.99,,,0.00,Acu-Link.com,2013-01-21 22:31:00,
2013-01-21 17:47:00,58.8,41.7,29.80,West,270,2.2,-999.0,53,-99.99,,,0.00,Acu-Link.com,2013-01-21 22:47:00,
2013-01-21 18:02:00,57.4,41.8,29.81,SW,225,0.0,-999.0,56,-99.99,,,0.00,Acu-Link.com,2013-01-21 23:02:00,
2013-01-21 18:17:00,55.9,42.2,29.81,WSW,247,1.7,-999.0,60,-99.99,,,0.00,Acu-Link.com,2013-01-21 23:17:00,
2013-01-21 18:33:00,55.4,43.0,29.81,WNW,292,0.0,-999.0,63,-99.99,,,0.00,Acu-Link.com,2013-01-21 23:33:00,
2013-01-21 18:48:00,54.9,43.4,29.81,WSW,247,2.7,-999.0,65,-99.99,,,0.00,Acu-Link.com,2013-01-21 23:48:00,
2013-01-21 19:03:00,55.0,42.6,29.82,South,180,5.3,-999.0,63,-99.99,,,0.00,Acu-Link.com,2013-01-22 00:03:00,
2013-01-21 19:19:00,55.0,43.0,29.82,WSW,247,2.2,-999.0,64,-99.99,,,0.00,Acu-Link.com,2013-01-22 00:19:00,
2013-01-21 19:34:00,54.5,43.4,29.82,West,270,2.2,-999.0,66,-99.99,,,0.00,Acu-Link.com,2013-01-22 00:34:00,
2013-01-21 19:49:00,55.0,42.6,29.82,WSW,247,3.7,-999.0,63,-99.99,,,0.00,Acu-Link.com,2013-01-22 00:49:00,
2013-01-21 20:05:00,55.4,42.6,29.82,West,270,3.7,-999.0,62,-99.99,,,0.00,Acu-Link.com,2013-01-22 01:05:00,
2013-01-21 20:20:00,55.4,42.6,29.83,West,270,4.2,-999.0,62,-99.99,,,0.00,Acu-Link.com,2013-01-22 01:20:00,
2013-01-21 20:35:00,55.2,42.4,29.83,WSW,247,3.7,-999.0,62,-99.99,,,0.00,Acu-Link.com,2013-01-22 01:35:00,
2013-01-21 20:51:00,54.9,41.3,29.83,West,270,4.2,-999.0,60,-99.99,,,0.00,Acu-Link.com,2013-01-22 01:51:00,
2013-01-21 21:06:00,54.5,40.9,29.83,WSW,247,2.7,-999.0,60,-99.99,,,0.00,Acu-Link.com,2013-01-22 02:06:00,
2013-01-21 21:21:00,53.8,40.7,29.84,WSW,247,1.7,-999.0,61,-99.99,,,0.00,Acu-Link.com,2013-01-22 02:21:00,
2013-01-21 21:37:00,53.6,40.1,29.84,WSW,247,3.7,-999.0,60,-99.99,,,0.00,Acu-Link.com,2013-01-22 02:37:00,
2013-01-21 22:07:00,53.8,39.8,29.85,West,270,4.2,-999.0,59,-99.99,,,0.00,Acu-Link.com,2013-01-22 03:07:00,
2013-01-21 22:22:00,54.0,39.1,29.86,West,270,6.3,-999.0,57,-99.99,,,0.00,Acu-Link.com,2013-01-22 03:22:00,
2013-01-21 22:37:00,54.0,38.2,29.86,WSW,247,6.3,-999.0,55,-99.99,,,0.00,Acu-Link.com,2013-01-22 03:37:00,
2013-01-21 22:53:00,54.3,37.1,29.86,WSW,247,6.3,-999.0,52,-99.99,,,0.00,Acu-Link.com,2013-01-22 03:53:00,
2013-01-21 23:08:00,53.8,36.6,29.86,West,270,7.3,-999.0,52,-99.99,,,0.00,Acu-Link.com,2013-01-22 04:08:00,
2013-01-21 23:23:00,53.2,36.5,29.86,WNW,292,6.3,-999.0,53,-99.99,,,0.00,Acu-Link.com,2013-01-22 04:23:00,
2013-01-21 23:38:00,52.7,36.1,29.86,WNW,292,5.8,-999.0,53,-99.99,,,0.00,Acu-Link.com,2013-01-22 04:38:00,
2013-01-21 23:54:00,52.2,36.5,29.86,SW,225,4.7,-999.0,55,-99.99,,,0.00,Acu-Link.com,2013-01-22 04:54:00,